Погода в Эр-Ракке

Сирия     35°56′51″N   39°03′05″E
темп.,
°C
ветер,
м/с
пор.,
м/с
влажн.,
%
обл.,
%
осадки,
мм/ч
давл.,
гПа
погр.,
м
9 мая, вс
вс900:00+26з46315 0.0 101086
03:00+23зюз45377 0.0 100968
06:00+22зюз44375 0.0 100960
09:00+28зюз342528 0.0 1009463
12:00+33зюз5615100 0.0 10081047
15:00+33зюз791339 0.0 10061109
18:00+34зюз812120 0.0 10042124
21:00+29зсз814200 0.0 1006386
10 мая, пн
пн1000:00+21с915330 0.0 1009455
03:00+19с713230 0.0 1010488
06:00+17с712210 0.0 1012499
09:00+20с89180 0.0 1012692
12:00+26ссз66100 0.0 10111238
15:00+29сз45120 0.0 10081825
18:00+29сз55110 0.0 10071871
21:00+24ссв44110 0.0 100845
11 мая, вт
вт1100:00+21с33170 0.0 100825
03:00+19ссв33210 0.0 100832
06:00+17ссв34240 0.0 101066
09:00+23с33170 0.0 1010498
12:00+27ссз22130 0.0 10091254
15:00+30зсз23120 0.0 10082250
18:00+30з33110 0.0 10071731
21:00+25сз11160 0.0 100811
12 мая, ср
ср1200:00+24всв22160 0.0 100812
03:00+22всв33170 0.0 100813
06:00+21св22180 0.0 100913
09:00+27вюв23120 0.0 1010555
12:00+32в34100 0.0 10082141
15:00+34ю23105 0.0 10072988
18:00+34зюз43941 0.0 10061821
21:00+28сз45135 0.0 100850
13 мая, чт
чт1300:00+26сз44140 0.0 100829
03:00+23ссз33190 0.0 100822
06:00+22зсз33220 0.0 100921
09:00+28зсз44170 0.0 1010453
12:00+34зсз22100 0.0 10091506
15:00+36з4685 0.0 10072817
18:00+35з5590 0.0 10071762
21:00+30з44122 0.0 100925